     2              OBSERVATION DATA    GPS                 RINEX VERSION / TYPE
teqc 1997Jul24 19970814                                     PGM / RUN BY / DATE
                                                            COMMENT
Original Marker Name: 0617                                  COMMENT
Campaign Name: HPGN 1991                                    COMMENT
4-Character Station Name: 0617                              COMMENT
6-Character Antenna Code: TRMSST                            COMMENT
Vertical Measurement Point: TGP                             COMMENT
Vertical Offset to Rinex Ref. Point: 0.0629                 COMMENT
Radial Measurement Point: OGP                               COMMENT
Radial Offset to Rinex Ref. Point: 0.2413                   COMMENT
Antenna Height from Field Measurement: 1.6460 m             COMMENT
Original XYZ: -2497603.7123 -4576132.5630 3663045.0936      COMMENT
New XYZ position is based on association with SCEC monument COMMENT
E1E9Z1D8+0011. Position of that monument is believed to be  COMMENT
valid to within 1 m horizontally; vertical accuracy         COMMENT
should be no worse than 3-times this value.                 COMMENT
                                                            COMMENT
Revised Rinex header created by UCSD GPS archive for        COMMENT
GSAC on 19-Apr-1999 (1999:109) 06:11:55 GMT                 COMMENT
For assistance contact dagnew@ucsd.edu or hjohnson@ucsd.edu COMMENT
                                                            COMMENT
HPGN-CALIF STA 06-17 1991                                   MARKER NAME
unknown NGTS                                                OBSERVER / AGENCY
484 TRIMBLE 4000 SST NP 4.30 / SP 4.20                      REC # / TYPE / VERS
18 TR 4000SST L1/L2 GEO                                     ANT # / TYPE
 -2497601.0000 -4576122.0000  3663044.0000                  APPROX POSITION XYZ
        1.5653        0.0000        0.0000                  ANTENNA: DELTA H/E/N
     1     1     0                                          WAVELENGTH FACT L1/2
     3    C1    L1    L2                                    # / TYPES OF OBSERV
     0                                                      INTERVAL
  1991     5     1     1     5   15.000000                  TIME OF FIRST OBS
  1991     5     1     1    29   60.000000                  TIME OF LAST OBS
     0                                                      # OF SATELLITES
                                                            END OF HEADER
 91  5  1  1  5 15.0000000  0  4G13G 2G 6G12
  20568799.8204         -0.98358
  23031809.625          -0.93216
  22387227.4924         -0.03756
  22309253.7114         -0.59857
 91  5  1  1  5 30.0000000  0  4G13G 2G 6G12
  20569944.1414       6010.34748        -0.13872
  23036065.008       22361.422 6
  22394015.141       35680.680 6
  22299431.0164     -51628.96547
 91  5  1  1  5 45.0000000  0  4G13G 2G 6G12
  20571103.3364      12103.97448      4748.13762
  23040327.5634      44762.37146        -0.42371
  22400820.297       71445.428 6        -0.20831
  22289617.2034    -103194.26847
 91  5  1  1  6  0.0000000  0  4G13G 2G 6G12
  20572280.6254      18286.11548      9565.38662
  23044598.516       67208.919 6     17490.34621
  22407644.0704     107300.75246     27938.93561
  22279817.6564    -154689.39847        -0.28771
 91  5  1  1  6 15.0000000  0  4G13G 2G 6G12
  20573473.3134      24561.03448     14454.92862
  23048878.922       89705.541 6     35020.17421
  22414487.1094     143250.92446     55951.99361
  22270033.9614    -206109.52547    -40067.89561
 91  5  1  1  6 30.0000000  0  4G13G 2G 6G12
  20574685.0394      30930.13648     19417.86062
  23053173.219      112253.690 6     52590.07321
  22421343.539      179297.218 6     84039.93121
  22260263.055     -257452.755 7    -80075.57321
 91  5  1  1  6 45.0000000  0  4G13G 2G 6G12
  20575914.9064      37389.15148     24450.85362
  23057470.609      134849.401 6     70197.10421
  22428221.109      215435.469 6    112199.52521
  22250507.4144    -308722.71147   -120026.16661
 91  5  1  1  7  0.0000000  0  4G13G 2G 6G12
  20577162.5314      43939.72348     29555.19362
  23061779.492      157494.533 6     87842.60721
  22435115.859      251667.118 6    140431.90321
  22240764.8984    -359917.06747   -159917.84561
 91  5  1  1  7 15.0000000  0  4G13G 2G 6G12
  20578426.2894      50587.65948     34735.40262
  23066100.227      180195.602 6    105531.73321
  22442029.8444     287998.29346    168741.84361
  22231036.617     -411029.118 7   -199745.39221
 91  5  1  1  7 30.0000000  0  4G13G 2G 6G12
  20579711.3204      57331.24748     39990.14362
  23070430.8054     202950.89546    123263.05961
  22448961.063      324427.307 6    197128.01021
  22221326.4144    -462059.99247   -239509.66961
 91  5  1  1  7 45.0000000  0  4G13G 2G 6G12
  20581009.7734      64163.36548     45313.86562
  23074771.164      225753.820 6    141031.55821
  22455912.141      360947.157 6    225584.98621
  22211631.4144    -513016.00747   -279215.63961
 91  5  1  1  8  0.0000000  0  4G13G 2G 6G12
  20582327.5394      71087.59248     50709.36562
  23079119.383      248607.913 6    158839.87921
  22462878.7504     397561.08246    254115.26161
  22201948.0944    -563893.28447   -318860.24462
 91  5  1  1  8 15.0000000  0  4G13G 2G 6G12
  20583664.5784      78111.25748     56182.34462
  23083475.6804     271520.88246    176694.12661
  22469864.4844     434276.64946    282724.71761
  22192282.8364    -614683.70147   -358437.16761
 91  5  1  1  8 30.0000000  0  4G13G 2G 6G12
  20585018.1024      85224.27648     61724.95462
  23087849.258      294482.975 6    194586.59921
  22476868.0004     471083.74846    311405.51261
  22182634.336     -665396.835 7   -397953.86921
 91  5  1  1  8 45.0000000  0  4G13G 2G 6G12
  20586389.7344      92431.15848     67340.70362
  23092227.0314     317498.87046    212521.03761
  22483892.086      507986.877 6    340161.15321
  22172998.6174    -716027.41947   -437406.24162
 91  5  1  1  9  0.0000000  0  4G13G 2G 6G12
  20587776.9224      99724.64048     73023.92962
  23096617.992      340561.545 6    230491.92221
  22490934.1804     544978.82746    368985.98061
  22163378.5474    -766582.30047   -476799.62961
 91  5  1  1  9 15.0000000  0  4G13G 2G 6G12
  20589181.2424     107101.68148     78772.26862
  23101013.8524     363668.33246    248497.14961
  22497989.4534     582056.68646    397877.76361
  22153772.0314    -817063.54047   -516135.63461
 91  5  1  1  9 30.0000000  0  4G13G 2G 6G12
  20590602.0004     114569.06448     84591.00462
  23105420.4384     386826.42246    266542.36061
  22505063.1484     619227.19146    426841.73061
  22144181.2274    -867463.88047   -555408.59862
 91  5  1  1  9 45.0000000  0  4G13G 2G 6G12
  20592041.0554     122131.28148     90483.63662
  23109838.4844     410040.43146    284631.14961
  22512155.0474     656494.62646    455881.22061
  22134604.6254    -917778.41647   -594614.69861
 91  5  1  1 10  0.0000000  0  4G13G 2G 6G12
  20593499.4534     129797.25848     96457.12262
  23114267.9144     433319.43146    302770.62161
  22519266.133      693868.068 6    485003.31121
  22125049.930     -967997.474 7   -633746.40422
 91  5  1  1 10 15.0000000  0  4G13G 2G 6G12
  20594977.4064     137554.74548    102501.90862
  23118709.203      456651.323 6    320951.24721
  22526394.633      731335.020 6    514198.25621
  22115509.7734   -1018132.78547   -672812.84761
 91  5  1  1 10 30.0000000  0  4G13G 2G 6G12
  20596470.1254     145409.52048    108622.50962
  23123160.7894     480042.34146    339177.97961
  22533544.2814     768901.52046    543470.78561
  22105986.8524   -1068177.79847   -711808.93062
 91  5  1  1 10 45.0000000  0  4G13G 2G 6G12
  20597983.8754     153357.47148    114815.71362
  23127621.5084     503488.80046    357447.89561
  22540712.5784     806563.41946    572817.64661
  22096480.2584   -1118135.99247   -750737.36162
 91  5  1  1 11  0.0000000  0  4G13G 2G 6G12
  20599510.6884     161383.19048    121069.51962
  23132090.922      526975.531 6    375749.20921
  22547892.5234     844305.39846    602226.92761
  22086985.8284   -1168021.99447   -789609.53462
 91  5  1  1 11 15.0000000  0  4G13G 2G 6G12
  20601055.2814     169501.36248    127395.35962
  23136571.031      550517.701 6    394093.72321
  22555092.7034     882142.33446    631710.17661
  22077511.5084   -1217820.43047   -828413.47961
 91  5  1  1 11 30.0000000  0  4G13G 2G 6G12
  20602617.7194     177715.94848    133796.33162
  23141061.945      574119.184 6    412484.42921
  22562311.906      920077.947 6    661270.34121
  22068051.2584   -1267526.87647   -867145.74162
 91  5  1  1 11 45.0000000  0  4G13G 2G 6G12
  20604199.0314     186021.95548    140268.53762
  23145563.172      597775.345 6    430917.76421
  22569547.570      958107.135 6    690903.40021
  22058611.3524   -1317145.80947   -905809.80162
 91  5  1  1 12  0.0000000  0  4G13G 2G 6G12
  20605796.0864     194413.55448    146807.43962
  23150073.3054     621480.64346    449389.38561
  22576801.7584     996224.23846    720604.97561
  22049183.5394   -1366682.14147   -944409.50762
 91  5  1  1 12 15.0000000  0  4G13G 2G 6G12
  20607408.1174     202886.77248    153409.93962
  23154596.039      645231.493 6    467896.49321
  22584071.8834    1034425.43446    750372.08161
  22039771.5634   -1416139.13847   -982947.39262
 91  5  1  1 12 30.0000000  0  4G13G 2G 6G12
  20609036.5944     211443.71848    160077.67962
  23159125.641      669030.271 6    486440.97421
  22591357.195     1072712.638 6    780206.19321
  22030375.7194   -1465514.19247  -1021421.42162
 91  5  1  1 12 45.0000000  0  4G13G 2G 6G12
  20610683.0864     220093.39248    166817.68662
  23163662.180      692886.329 6    505030.04821
  22598660.7504    1111095.00946    810114.47461
  22020997.6804   -1514797.63647  -1059824.07262
 91  5  1  1 13  0.0000000  0  4G13G 2G 6G12
  20612345.8834     228831.62848    173626.68062
  23168212.8524     716795.59246    523660.58161
  22605981.2274    1149568.29946    840093.59261
  22011636.3594   -1563993.10247  -1098158.16462
 91  5  1  1 13 15.0000000  0  4G13G 2G 6G12
  20614025.6954     237662.95948    180508.23162
  23172771.867      740762.810 6    542336.33421
  22613324.1094    1188137.06946    870147.10561
  22002292.3914   -1613095.38147  -1136419.63962
 91  5  1  1 13 30.0000000  0  4G13G 2G 6G12
  20615722.8524     246580.05648    187456.60762
  23177343.8204     764781.00646    561051.72661
  22620677.1644    1226793.82346    900269.18461
  21992964.8054   -1662111.20847  -1174613.75562
 91  5  1  1 13 45.0000000  0  4G13G 2G 6G12
  20617438.1644     255594.15348    194480.56662
  23181929.344      788861.727 6    579815.88321
  22628052.5784    1265549.94246    930468.68361
  21983654.7424   -1711028.57647  -1212731.15262
 91  5  1  1 14  0.0000000  0  4G13G 2G 6G12
  20619169.078      264693.441 8    201570.90822
  23186516.0634     812993.29646    598619.67061
  22635445.9064    1304393.60446    960736.41561
  21974364.0474   -1759858.67747  -1250780.54362
 91  5  1  1 14 15.0000000  0  4G13G 2G 6G12
  20620917.969      273880.758 8    208729.84222
  23191119.141      837179.038 6    617465.63221
  22642855.617     1343327.693 6    991074.58621
  21965089.6804   -1808598.00447  -1288759.20062
 91  5  1  1 14 30.0000000  0  4G13G 2G 6G12
  20622685.0084     283166.30748    215965.32962
  23195734.211      861429.294 6    636361.91921
  22650283.094     1382362.303 6   1021491.09221
  21955835.8054   -1857235.82747  -1326658.76762
 91  5  1  1 14 45.0000000  0  4G13G 2G 6G12
  20624466.8444     292531.42848    223262.81362
  23200357.148      885725.793 6    655294.14121
  22657726.1884    1421478.89946   1051971.49061
  21946594.7034   -1905790.05447  -1364493.19762
 91  5  1  1 15  0.0000000  0  4G13G 2G 6G12
  20626265.5314     301984.29048    230628.66962
  23204993.586      910077.007 6    674269.11921
  22665188.9144    1460685.59346   1082522.08161
  21937370.7814   -1954251.84547  -1402255.59762
 91  5  1  1 15 15.0000000  0  4G13G 2G 6G12
  20628079.398      311516.186 8    238056.10622
  23209635.3134     934474.35946    693279.97861
  22672664.5864    1499973.69046   1113136.11261
  21928165.7194   -2002629.37047  -1439952.33362
 91  5  1  1 15 30.0000000  0  4G13G 2G 6G12
  20629907.4534     321122.85148    245541.80762
  23214286.8524     958913.78546    712323.61861
  22680155.047     1539338.817 6   1143810.17221
  21918975.2114   -2050926.26547  -1477586.24462
 91  5  1  1 15 45.0000000  0  4G13G 2G 6G12
  20631752.8914     330815.15648    253094.24262
  23218945.758      983406.202 5    731408.61721
  22687661.7974    1578791.77746   1174552.66361
  21909801.8204   -2099131.19047  -1515148.49162
 91  5  1  1 16  0.0000000  0  4G13G 2G 6G12
  20633615.7504     340608.90848    260725.72462
  23223621.7814    1007968.02746    750547.55061
  22695190.625     1618348.484 6   1205375.99221
  21900649.3054   -2147227.39047  -1552626.02162
 91  5  1  1 16 15.0000000  0  4G13G 2G 6G12
  20635497.1024     350494.83348    268429.02962
  23228303.664     1032590.529 5    769733.96421
  22702734.273     1658000.058 6   1236273.25021
  21891515.7734   -2195223.43447  -1590025.50462
 91  5  1  1 16 30.0000000  0  4G13G 2G 6G12
  20637393.5234     360455.65148    276190.69862
  23233000.844     1057256.472 6    788954.08721
  22710295.406     1697728.834 6   1267230.66221
  21882399.3364   -2243136.12947  -1627360.04062
 91  5  1  1 16 45.0000000  0  4G13G 2G 6G12
  20639303.2424     370496.89448    284015.03362
  23237703.359     1081971.563 6    808212.52121
  22717873.5084    1737540.46246   1298252.63261
  21873298.6484   -2290959.32547  -1664624.84062
 91  5  1  1 17  0.0000000  0  4G13G 2G 6G12
  20641230.9454     380623.18148    291905.64062
  23242418.063     1106740.861 6    827513.26721
  22725465.500     1777439.432 6   1329342.66221
  21864215.898    -2338687.760 7  -1701815.80022
 91  5  1  1 17 15.0000000  0  4G13G 2G 6G12
  20643174.0554     390831.86948    299860.45362
  23247137.6094    1131561.77945    846854.14461
  22733073.633     1817423.096 6   1360498.68421
  21855150.1724   -2386323.56347  -1738934.57862
 91  5  1  1 17 30.0000000  0  4G13G 2G 6G12
  20645133.0704     401132.06748    307886.57162
  23251875.297     1156443.641 6    866242.55221
  22740697.8054    1857500.50246   1391727.76261
  21846106.188    -2433857.023 7  -1775973.61222
 91  5  1  1 17 45.0000000  0  4G13G 2G 6G12
  20647107.9064     411509.92148    315973.20462
  23256617.172     1181373.163 5    885668.13921
  22748341.656     1897657.885 6   1423019.16121
  21837077.242    -2481301.086 7  -1812942.98522
 91  5  1  1 18  0.0000000  0  4G13G 2G 6G12
  20649098.5554     421964.93148    324119.95962
  23261374.1724    1206349.82746    905130.32561
  22755998.1804    1937894.83646   1454372.55061
  21828067.242    -2528655.663 7  -1849842.63022
 91  5  1  1 18 15.0000000  0  4G13G 2G 6G12
  20651104.0394     432507.71348    332335.10862
  23266134.6804    1231384.50946    924637.90861
  22763671.250     1978221.757 6   1485796.06221
  21819073.9924   -2575909.81447  -1886664.02162
 91  5  1  1 18 30.0000000  0  4G13G 2G 6G12
  20653126.5474     443140.83048    340620.64662
  23270912.5164    1256480.15446    944192.84961
  22771363.938     2018641.298 6   1517291.72521
  21810101.8364   -2623060.16847  -1923404.52962
 91  5  1  1 18 45.0000000  0  4G13G 2G 6G12
  20655165.9224     453846.15648    348962.45762
  23275696.8284    1281618.79645    963781.36461
  22779067.5704    2059135.27046   1548845.39561
  21801144.977    -2670124.160 7  -1960077.74622
 91  5  1  1 19  0.0000000  0  4G13G 2G 6G12
  20657215.3444     464625.96948    357362.30362
  23280489.6334    1306803.21746    983405.53161
  22786790.0314    2099706.09746   1580458.93761
  21792206.8594   -2717098.74647  -1996681.29362
 91  5  1  1 19 15.0000000  0  4G13G 2G 6G12
  20659282.5554     475491.89948    365829.25562
  23285291.484     1332045.055 5   1003074.42921
  22794529.109     2140365.203 6   1612141.28321
  21783286.070    -2763971.889 7  -2033205.79022
 91  5  1  1 19 30.0000000  0  4G13G 2G 6G12
  20661365.6884     486434.78548    374356.17062
  23290105.063     1357335.485 6   1022781.18021
  22802279.1334    2181103.35146   1643885.19961
  21774385.000    -2810752.029 7  -2069657.82522
 91  5  1  1 19 45.0000000  0  4G13G 2G 6G12
  20663462.0004     497452.48748    382941.38962
  23294924.8914    1382672.84645   1042524.57761
  22810044.695     2221918.830 6   1675689.38921
  21765499.930    -2857440.391 7  -2106038.34022
 91  5  1  1 20  0.0000000  0  4G13G 2G 6G12
  20665571.3754     508541.53048    391582.19662
  23299756.2194    1408053.65846   1062301.69761
  22817828.359     2262807.748 6   1707550.80721
  21756633.6254   -2904040.19047  -2142349.84762
 91  5  1  1 20 15.0000000  0  4G13G 2G 6G12
  20667695.5944     519695.95048    400273.94762
  23304593.5234    1433472.38946   1082108.52761
  22825620.8754    2303764.30846   1739464.91761
  21747780.227    -2950556.650 7  -2178596.42122
 91  5  1  1 20 30.0000000  0  4G13G 2G 6G12
  20669829.8594     530918.00048    409018.39762
  23309440.016     1458931.500 6   1101946.66921
  22833428.5554    2344790.68846   1771433.44461
  21738946.070    -2996986.848 7  -2214775.77222
 91  5  1  1 20 45.0000000  0  4G13G 2G 6G12
  20671981.8524     542220.34548    417825.41362
  23314292.7894    1484444.16145   1121826.60061
  22841250.4534    2385899.64046   1803466.30961
  21730129.602    -3043317.426 7  -2250877.49822
 91  5  1  1 20 59.9990000  0  4G13G 2G 6G12
  20674147.7224     553607.23748    426698.31562
  23319159.909     1510013.723 6   1141750.93821
  22849088.331     2427093.293 6   1835565.18021
  21721332.331    -3089539.773 7  -2286894.88722
 91  5  1  1 21 14.9990000  0  4G13G 2G 6G12
  20676332.0034     565078.57548    435637.01762
  23324035.5344    1535642.06646   1161720.97661
  22856942.308     2468375.483 6   1867733.03921
  21712556.315    -3135660.874 7  -2322833.38622
 91  5  1  1 21 29.9990000  0  4G13G 2G 6G12
  20678527.1444     576618.58748    444629.22762
  23328920.6364    1561313.04546   1181724.25061
  22864813.6054    2509728.58246   1899956.13761
  21703796.612    -3181692.066 7  -2358701.82522
 91  5  1  1 21 44.9990000  0  4G13G 2G 6G12
  20680739.9334     588243.21048    453687.37162
  23333815.776     1587042.588 6   1201773.24421
  22872698.417     2551168.350 5   1932246.79521
  21695058.026    -3227616.930 7  -2394487.40822
 91  5  1  1 21 59.9990000  0  4G13G 2G 6G12
  20682968.3234     599952.92648    462811.82462
  23338724.0894    1612831.71546   1221868.52161
  22880602.276     2592695.310 5   1964605.37821
  21686338.495    -3273434.194 7  -2430189.15022
 91  5  1  1 22 14.9990000  0  4G13G 2G 6G12
  20685211.0814     611739.33148    471996.03262
  23343640.4094    1638672.07446   1242003.88461
  22888521.9014    2634301.14345   1997025.41061
  21677639.644    -3319151.742 7  -2465813.19022
 91  5  1  1 22 29.9990000  0  4G13G 2G 6G12
  20687469.6364     623611.92948    481247.40462
  23348569.401     1664573.721 5   1262186.88721
  22896452.089     2675995.443 6   2029514.39321
  21668959.690    -3364759.218 7  -2501351.45822
 91  5  1  1 22 44.9990000  0  4G13G 2G 6G12
  20689742.2144     635550.79948    490550.41562
  23353508.386     1690516.845 6   1282402.18621
  22904404.1054    2717758.18745   2062056.70561
  21660298.347    -3410275.969 7  -2536819.03022
 91  5  1  1 22 59.9990000  0  4G13G 2G 6G12
  20692027.9014     647565.83648    499912.77662
  23358453.9954    1716511.61945   1302657.90161
  22912361.198     2759599.079 5   2094659.91121
  21651656.847    -3455691.571 7  -2572207.78822
 91  5  1  1 23 14.9990000  0  4G13G 2G 6G12
  20694329.4094     659662.30548    509338.59262
  23363414.175     1742563.445 6   1322957.88721
  22920342.1594    2801523.44545   2127328.15861
  21643035.1834   -3501000.08247  -2607513.09762
 91  5  1  1 23 29.9990000  0  4G13G 2G 6G12
  20696647.8084     671839.91048    518827.62862
  23368380.401     1768672.293 5   1343302.37721
  22928335.480     2843530.869 5   2160061.14221
  21634432.534    -3546201.221 7  -2642734.74122
 91  5  1  1 23 44.9990000  0  4G13G 2G 6G12
  20698976.3864     684079.39848    528364.88462
  23373354.214     1794819.302 6   1363676.63921
  22936342.5654    2885602.35145   2192844.01361
  21625848.394    -3591313.530 7  -2677887.16522
 91  5  1  1 23 59.9990000  0  4G13G 2G 6G12
  20701318.1984     696387.03048    537955.23962
  23378337.534     1821010.748 5   1384085.45421
  22944362.269     2927743.786 5   2225681.42021
  21617281.050    -3636330.324 7  -2712965.15922
 91  5  1  1 24 14.9990000  0  4G13G 2G 6G12
  20703675.8624     708777.28048    547609.97762
  23383335.964     1847261.589 6   1404540.55421
  22952396.769     2969969.794 5   2258584.71121
  21608737.183    -3681236.384 7  -2747956.87222
 91  5  1  1 24 29.9990000  0  4G13G 2G 6G12
  20706046.8474     721237.17848    557318.97862
  23388336.612     1873558.819 5   1425031.95321
  22960444.972     3012267.287 5   2291543.70921
  21600209.628    -3726044.144 7  -2782871.98222
 91  5  1  1 24 44.9990000  0  4G13G 2G 6G12
  20708431.6284     733768.92548    567083.97162
  23393352.722     1899905.204 6   1445561.39321
  22968509.0894    3054638.33645   2324560.01961
  21591702.6054   -3770750.66747  -2817708.20762
 91  5  1  1 24 59.9990000  0  4G13G 2G 6G12
  20710831.6204     746382.90448    576913.04062
  23398382.7374    1926311.03046   1466137.34361
  22976589.581     3097093.500 5   2357641.87921
  21583216.6834   -3815345.10947  -2852457.09862
 91  5  1  1 25 14.9990000  0  4G13G 2G 6G12
  20713246.6754     759070.73748    586799.65262
  23403409.7694    1952768.51645   1486753.55161
  22984679.745     3139624.371 5   2390782.71421
  21574749.0584   -3859835.16347  -2887124.63962
 91  5  1  1 25 29.9990000  0  4G13G 2G 6G12
  20715675.1674     771834.95248    596745.78962
  23408458.870     1979280.523 6   1507412.06321
  22992790.8154    3182233.48545   2423984.53861
  21566305.5584   -3904217.37647  -2921708.15462
 91  5  1  1 25 44.9990000  0  4G13G 2G 6G12
  20718116.3864     784659.95148    606739.29262
  23413508.3234    2005831.63645   1528101.29761
  23000911.5814    3224905.27245   2457235.18761
  21557877.6754   -3948506.96847  -2956219.49762
 91  5  1  1 25 59.9990000  0  4G13G 2G 6G12
  20720570.6364     797560.36848    616791.55962
  23418573.026     2032436.689 6   1548832.39921
  23009045.9724    3267654.27145   2490546.00061
  21549470.4334   -3992688.66647  -2990646.76162
 91  5  1  1 26 14.9990000  0  4G13G 2G 6G12
  20723038.7224     810531.87548    626899.22162
  23423644.6674    2059091.71145   1569602.44161
  23017190.9484    3310476.19245   2523913.64661
  21541082.0424   -4036765.97847  -3024992.69262
 91  5  1  1 26 29.9990000  0  4G13G 2G 6G12
  20725521.4014     823574.25948    637062.11762
  23428729.237     2085796.447 6   1590411.28021
  23025355.6284    3353370.66545   2557337.81561
  21532714.4174   -4080738.75347  -3059257.16162
 91  5  1  1 26 44.9990000  0  4G13G 2G 6G12
  20728017.1674     836689.09348    647281.46562
  23433819.972     2112552.812 6   1611260.40021
  23033532.714     3396339.353 5   2590819.82021
  21524366.2924   -4124604.67847  -3093438.36662
 91  5  1  1 26 59.9990000  0  4G13G 2G 6G12
  20730525.8554     849869.84648    657552.17962
  23438915.3624    2139354.82445   1632144.89961
  23041722.9014    3439375.75045   2624354.57261
  21516038.0424   -4168369.56247  -3127540.83962
 91  5  1  1 27 14.9990000  0  4G13G 2G 6G12
  20733045.2224     863111.93748    667870.68562
  23444028.386     2166198.050 6   1653061.66621
  23049921.4174    3482475.16845   2657938.44361
  21507727.5814   -4212037.36347  -3161567.66762
 91  5  1  1 27 29.9990000  0  4G13G 2G 6G12
  20735579.4404     876429.09648    678247.69062
  23449144.831     2193096.562 5   1674021.54021
  23058140.683     3525651.428 5   2691582.19121
  21499439.6674   -4255593.78147  -3195507.69662
 91  5  1  1 27 44.9990000  0  4G13G 2G 6G12
  20738126.7224     889820.99748    688682.93662
  23454275.480     2220050.273 6   1695024.21821
  23066370.7144    3568904.06945   2725285.43661
  21491172.3554   -4299038.44147  -3229360.64462
 91  5  1  1 27 59.9990000  0  4G13G 2G 6G12
  20740689.6054     903287.52948    699176.33362
  23459414.175     2247058.954 5   1716069.98521
  23074615.722     3612232.714 5   2759047.94821
  21482926.1364   -4342371.09747  -3263126.31362
 91  5  1  1 28 14.9990000  0  4G13G 2G 6G12
  20743267.9484     916827.39448    709726.87462
  23464563.2694    2274121.60045   1737157.67561
  23082874.4954    3655636.01645   2792868.58761
  21474701.7304   -4385592.48547  -3296805.28362
 91  5  1  1 28 29.9990000  0  4G13G 2G 6G12
  20745856.0344     930434.53948    720329.83962
  23469723.972     2301232.572 6   1758282.94421
  23091148.3704    3699108.22245   2826742.92561
  21466496.8624   -4428707.91147  -3330401.68462
 91  5  1  1 28 44.9990000  0  4G13G 2G 6G12
  20748457.5734     944105.77348    730982.74362
  23474888.503     2328388.921 5   1779443.74221
  23099434.7454    3742645.91245   2860668.31261
  21458313.5034   -4471719.96648  -3363917.53262
 91  5  1  1 28 59.9990000  0  4G13G 2G 6G12
  20751073.4724     957852.05948    741694.12862
  23480070.464     2355601.943 6   1800648.65321
  23107731.2924    3786260.05245   2894653.26161
  21450149.3554   -4514616.95948  -3397343.72462
 91  5  1  1 29 14.9990000  0  4G13G 2G 6G12
  20753704.0974     971674.90548    752465.17162
  23485259.097     2382873.452 5   1821899.04121
  23116047.6124    3829952.25545   2928699.02061
  21442008.5424   -4557396.69448  -3430678.54563
 91  5  1  1 29 29.9990000  0  4G13G 2G 6G12
  20756347.1834     985563.01048    763287.06362
  23490456.7924    2410192.12045
  23124374.2694    3873710.93145   2962796.60361
  21433887.7764   -4600070.11947  -3463930.53062
 91  5  1  1 29 44.9990000  0  4G13G 2G 6G12
  20759002.6834     999524.95547    774166.49762
  23495667.526     2437566.800 6
  23132715.3864    3917544.74445   2996952.72761
  21425790.3554   -4642627.83347  -3497092.34362
